RON185 PTRO-PTPN

Flight info

Callsign RON185
Flight time 3h 8m
Altitude 37000
Route ROR 08N139E 08N145E EWILS PNI
Aircraft A339/H-SADE1E2E3GHIJ3J5M1P2RWXY/LB2D1

Departure

Time 2026-04-30 05:29
Airport Roman Tmetuchl International Airport (PTRO)

Arrival

Time 2026-04-30 08:37
Airport Pohnpei International Airport (PTPN)
Time Latitude Longitude Altitude Speed Heading
2026-04-30 05:15 7.36518 134.53295 179 ft 0 kts 180°
2026-04-30 05:24 7.36532 134.53294 179 ft 0 kts 124°
2026-04-30 05:25 7.36547 134.53300 180 ft 1 kts 59°
2026-04-30 05:27 7.36552 134.53305 179 ft 3 kts 55°
2026-04-30 05:28 7.36577 134.53332 179 ft 7 kts 44°
2026-04-30 05:28 7.36628 134.53373 179 ft 11 kts 38°
2026-04-30 05:28 7.36701 134.53429 179 ft 15 kts 37°
2026-04-30 05:28 7.36748 134.53531 177 ft 21 kts 85°
2026-04-30 05:29 7.36750 134.53967 178 ft 102 kts 91°
2026-04-30 05:29 7.36727 134.54901 192 ft 164 kts 90°
2026-04-30 05:29 7.36753 134.56083 786 ft 168 kts 90°
2026-04-30 05:29 7.36775 134.57259 1572 ft 168 kts 85°
2026-04-30 05:30 7.36949 134.58424 2280 ft 173 kts 83°
2026-04-30 05:30 7.37146 134.59711 2611 ft 196 kts 83°
2026-04-30 05:30 7.37366 134.61142 2922 ft 217 kts 83°
2026-04-30 05:30 7.37602 134.62707 3249 ft 235 kts 83°
2026-04-30 05:31 7.37854 134.64408 3458 ft 254 kts 83°
2026-04-30 05:31 7.38115 134.66174 3967 ft 258 kts 83°
2026-04-30 05:31 7.38382 134.67986 4461 ft 263 kts 83°
2026-04-30 05:31 7.38653 134.69811 5117 ft 262 kts 83°
2026-04-30 05:32 7.38924 134.71640 5708 ft 267 kts 83°
2026-04-30 05:32 7.39201 134.73507 6456 ft 271 kts 82°
2026-04-30 05:32 7.39487 134.75373 7316 ft 270 kts 83°
2026-04-30 05:32 7.39770 134.77263 8017 ft 275 kts 83°
2026-04-30 05:33 7.40050 134.79197 8545 ft 280 kts 83°
2026-04-30 05:33 7.40327 134.81120 9089 ft 281 kts 83°
2026-04-30 05:33 7.40613 134.83079 9629 ft 284 kts 82°
2026-04-30 05:33 7.40904 134.85058 10067 ft 290 kts 82°
2026-04-30 05:34 7.41209 134.87135 10195 ft 307 kts 82°
2026-04-30 05:34 7.41531 134.89320 10336 ft 322 kts 82°
2026-04-30 05:34 7.41867 134.91604 10484 ft 336 kts 82°
2026-04-30 05:34 7.42095 134.93152 10778 ft 338 kts 82°
2026-04-30 05:35 7.42553 134.96260 11435 ft 340 kts 82°
2026-04-30 05:35 7.42901 134.98622 11898 ft 343 kts 82°
2026-04-30 05:35 7.43253 135.01014 12328 ft 346 kts 82°
2026-04-30 05:35 7.43487 135.02604 12701 ft 346 kts 82°
2026-04-30 05:36 7.43840 135.05012 13161 ft 349 kts 82°
2026-04-30 05:36 7.44197 135.07447 13575 ft 353 kts 82°
2026-04-30 05:36 7.44557 135.09895 14029 ft 354 kts 82°
2026-04-30 05:36 7.44918 135.12354 14437 ft 356 kts 82°
2026-04-30 05:37 7.45282 135.14835 14813 ft 359 kts 82°
2026-04-30 05:37 7.45647 135.17329 15262 ft 360 kts 82°
2026-04-30 05:37 7.46015 135.19836 15665 ft 363 kts 82°
2026-04-30 05:37 7.46385 135.22368 16000 ft 366 kts 82°
2026-04-30 05:38 7.46758 135.24910 16444 ft 367 kts 82°
2026-04-30 05:38 7.47128 135.27434 16787 ft 370 kts 82°
2026-04-30 05:38 7.47506 135.30021 17145 ft 373 kts 82°
2026-04-30 05:38 7.47884 135.32602 17597 ft 373 kts 82°
2026-04-30 05:39 7.48266 135.35217 17885 ft 378 kts 82°
2026-04-30 05:39 7.48650 135.37846 18269 ft 379 kts 82°
2026-04-30 05:39 7.49035 135.40478 18636 ft 380 kts 82°
2026-04-30 05:39 7.49423 135.43133 18895 ft 384 kts 82°
2026-04-30 05:40 7.49812 135.45797 19278 ft 385 kts 82°
2026-04-30 05:40 7.50203 135.48476 19601 ft 387 kts 82°
2026-04-30 05:40 7.50598 135.51180 19890 ft 390 kts 82°
2026-04-30 05:40 7.50987 135.53847 20306 ft 390 kts 82°
2026-04-30 05:41 7.51384 135.56577 20560 ft 395 kts 82°
2026-04-30 05:41 7.51784 135.59317 20928 ft 395 kts 82°
2026-04-30 05:41 7.52184 135.62067 21275 ft 397 kts 82°
2026-04-30 05:41 7.52587 135.64842 21565 ft 400 kts 82°
2026-04-30 05:42 7.52993 135.67626 21958 ft 401 kts 82°
2026-04-30 05:42 7.53399 135.70421 22198 ft 405 kts 82°
2026-04-30 05:42 7.53803 135.73203 22569 ft 406 kts 82°
2026-04-30 05:42 7.54213 135.76025 22915 ft 409 kts 82°
2026-04-30 05:43 7.54627 135.78874 23212 ft 411 kts 82°
2026-04-30 05:43 7.55042 135.81734 23574 ft 412 kts 82°
2026-04-30 05:43 7.55458 135.84606 23809 ft 416 kts 82°
2026-04-30 05:43 7.55877 135.87495 24140 ft 416 kts 82°
2026-04-30 05:44 7.56296 135.90385 24430 ft 418 kts 82°
2026-04-30 05:44 7.56719 135.93301 24688 ft 420 kts 82°
2026-04-30 05:44 7.57138 135.96195 25028 ft 421 kts 82°
2026-04-30 05:44 7.57561 135.99119 25263 ft 424 kts 82°
2026-04-30 05:45 7.57987 136.02066 25559 ft 425 kts 82°
2026-04-30 05:45 7.58415 136.05024 25842 ft 427 kts 82°
2026-04-30 05:45 7.58845 136.07996 26114 ft 429 kts 82°
2026-04-30 05:45 7.59276 136.10980 26427 ft 430 kts 82°
2026-04-30 05:46 7.59708 136.13976 26649 ft 433 kts 82°
2026-04-30 05:46 7.60142 136.16985 26977 ft 434 kts 82°
2026-04-30 05:46 7.60570 136.19953 27227 ft 436 kts 82°
2026-04-30 05:46 7.61009 136.22993 27493 ft 438 kts 82°
2026-04-30 05:47 7.61447 136.26037 27766 ft 439 kts 82°
2026-04-30 05:47 7.61888 136.29094 28012 ft 442 kts 82°
2026-04-30 05:47 7.62329 136.32159 28327 ft 443 kts 82°
2026-04-30 05:47 7.62772 136.35242 28545 ft 445 kts 82°
2026-04-30 05:48 7.63219 136.38348 28805 ft 447 kts 82°
2026-04-30 05:48 7.63665 136.41455 29050 ft 449 kts 82°
2026-04-30 05:48 7.64114 136.44581 29307 ft 451 kts 82°
2026-04-30 05:48 7.64564 136.47712 29583 ft 452 kts 82°
2026-04-30 05:49 7.65016 136.50865 29813 ft 455 kts 82°
2026-04-30 05:49 7.65465 136.53990 30085 ft 456 kts 82°
2026-04-30 05:49 7.65920 136.57169 30300 ft 458 kts 82°
2026-04-30 05:49 7.66377 136.60357 30541 ft 460 kts 82°
2026-04-30 05:50 7.66835 136.63554 30787 ft 461 kts 82°
2026-04-30 05:50 7.67294 136.66764 31035 ft 463 kts 82°
2026-04-30 05:50 7.67751 136.69957 31291 ft 464 kts 82°
2026-04-30 05:50 7.68213 136.73188 31517 ft 466 kts 82°
2026-04-30 05:51 7.68676 136.76430 31771 ft 468 kts 82°
2026-04-30 05:51 7.69140 136.79681 31971 ft 470 kts 82°
2026-04-30 05:51 7.69607 136.82948 32215 ft 471 kts 82°
2026-04-30 05:51 7.70073 136.86219 32417 ft 473 kts 82°
2026-04-30 05:52 7.70543 136.89512 32591 ft 474 kts 82°
2026-04-30 05:52 7.71012 136.92806 32762 ft 475 kts 82°
2026-04-30 05:52 7.71483 136.96113 32908 ft 476 kts 82°
2026-04-30 05:52 7.71950 136.99391 33033 ft 477 kts 82°
2026-04-30 05:53 7.72896 137.06042 33238 ft 479 kts 82°
2026-04-30 05:53 7.73370 137.09378 33363 ft 480 kts 82°
2026-04-30 05:53 7.73837 137.12671 33500 ft 479 kts 82°
2026-04-30 05:54 7.74312 137.16015 33643 ft 479 kts 82°
2026-04-30 05:54 7.74783 137.19337 33790 ft 479 kts 82°
2026-04-30 05:54 7.75253 137.22656 33922 ft 478 kts 82°
2026-04-30 05:54 7.75723 137.25971 34053 ft 478 kts 82°
2026-04-30 05:55 7.76193 137.29288 34175 ft 477 kts 82°
2026-04-30 05:55 7.76662 137.32602 34300 ft 477 kts 82°
2026-04-30 05:55 7.77125 137.35876 34419 ft 477 kts 82°
2026-04-30 05:55 7.77593 137.39191 34544 ft 476 kts 82°
2026-04-30 05:56 7.78529 137.45813 34754 ft 476 kts 82°
2026-04-30 05:56 7.78995 137.49115 34874 ft 476 kts 82°
2026-04-30 05:56 7.79461 137.52421 34999 ft 476 kts 82°
2026-04-30 05:57 7.79927 137.55725 35130 ft 475 kts 82°
2026-04-30 05:57 7.80391 137.59023 35256 ft 475 kts 82°
2026-04-30 05:57 7.80856 137.62320 35374 ft 475 kts 83°
2026-04-30 05:57 7.81320 137.65622 35504 ft 475 kts 83°
2026-04-30 05:58 7.81784 137.68917 35639 ft 474 kts 83°
2026-04-30 05:58 7.82246 137.72210 35780 ft 474 kts 83°
2026-04-30 05:58 7.82705 137.75476 35920 ft 473 kts 83°
2026-04-30 05:58 7.83167 137.78762 36065 ft 473 kts 83°
2026-04-30 05:59 7.83630 137.82063 36205 ft 473 kts 83°
2026-04-30 05:59 7.84089 137.85335 36361 ft 472 kts 83°
2026-04-30 05:59 7.84549 137.88621 36519 ft 472 kts 83°
2026-04-30 05:59 7.85008 137.91893 36677 ft 471 kts 83°
2026-04-30 06:00 7.85461 137.95129 36818 ft 471 kts 83°
2026-04-30 06:00 7.85918 137.98400 36857 ft 470 kts 83°
2026-04-30 06:00 7.86831 138.04928 36867 ft 469 kts 83°
2026-04-30 06:01 7.87740 138.11441 36861 ft 469 kts 83°
2026-04-30 06:01 7.88650 138.17966 36859 ft 469 kts 83°
2026-04-30 06:02 7.89553 138.24452 36862 ft 469 kts 83°
2026-04-30 06:02 7.90461 138.30976 36862 ft 469 kts 83°
2026-04-30 06:03 7.91368 138.37503 36861 ft 470 kts 83°
2026-04-30 06:03 7.92274 138.44026 36864 ft 469 kts 83°
2026-04-30 06:04 7.93179 138.50557 36865 ft 470 kts 83°
2026-04-30 06:05 7.94534 138.60340 36869 ft 471 kts 83°
2026-04-30 06:05 7.95439 138.66890 36868 ft 471 kts 83°
2026-04-30 06:06 7.96343 138.73435 36864 ft 471 kts 83°
2026-04-30 06:06 7.97247 138.79983 36862 ft 471 kts 83°
2026-04-30 06:07 7.98148 138.86526 36861 ft 471 kts 83°
2026-04-30 06:07 7.99045 138.93030 36858 ft 471 kts 83°
2026-04-30 06:08 7.99903 138.99589 36857 ft 471 kts 86°
2026-04-30 06:08 8.00046 139.06190 36858 ft 471 kts 91°
2026-04-30 06:09 8.00081 139.12806 36863 ft 471 kts 91°
2026-04-30 06:09 8.00131 139.19427 36863 ft 472 kts 91°
2026-04-30 06:10 8.00178 139.26045 36866 ft 472 kts 90°
2026-04-30 06:10 8.00222 139.32670 36863 ft 472 kts 91°
2026-04-30 06:11 8.00265 139.39262 36869 ft 472 kts 90°
2026-04-30 06:11 8.00306 139.45904 36865 ft 472 kts 91°
2026-04-30 06:12 8.00346 139.52539 36877 ft 472 kts 91°
2026-04-30 06:12 8.00385 139.59163 36869 ft 472 kts 90°
2026-04-30 06:13 8.00423 139.65741 36870 ft 472 kts 90°
2026-04-30 06:13 8.00460 139.72374 36866 ft 472 kts 90°
2026-04-30 06:14 8.00496 139.79030 36864 ft 477 kts 90°
2026-04-30 06:14 8.00531 139.85752 36868 ft 480 kts 91°
2026-04-30 06:15 8.00565 139.92514 36867 ft 482 kts 91°
2026-04-30 06:15 8.00599 139.99258 36869 ft 483 kts 91°
2026-04-30 06:16 8.00631 140.06059 36867 ft 485 kts 91°
2026-04-30 06:16 8.00661 140.12870 36869 ft 486 kts 91°
2026-04-30 06:17 8.00692 140.19690 36867 ft 486 kts 91°
2026-04-30 06:17 8.00721 140.26525 36869 ft 487 kts 91°
2026-04-30 06:18 8.00748 140.33328 36867 ft 487 kts 91°
2026-04-30 06:18 8.00776 140.40170 36867 ft 487 kts 91°
2026-04-30 06:19 8.00801 140.47010 36870 ft 487 kts 91°
2026-04-30 06:19 8.00826 140.53843 36869 ft 487 kts 91°
2026-04-30 06:20 8.00849 140.60685 36871 ft 487 kts 91°
2026-04-30 06:20 8.00872 140.67486 36868 ft 487 kts 90°
2026-04-30 06:21 8.00894 140.74322 36872 ft 487 kts 90°
2026-04-30 06:21 8.00911 140.80005 36872 ft 487 kts 91°
2026-04-30 06:22 8.00930 140.86846 36870 ft 487 kts 91°
2026-04-30 06:22 8.00952 140.94807 36869 ft 488 kts 91°
2026-04-30 06:23 8.00965 141.00527 36870 ft 489 kts 91°
2026-04-30 06:23 8.00980 141.07388 36872 ft 489 kts 91°
2026-04-30 06:24 8.00995 141.14223 36873 ft 489 kts 91°
2026-04-30 06:24 8.01009 141.21093 36872 ft 490 kts 91°
2026-04-30 06:25 8.01022 141.27961 36873 ft 490 kts 91°
2026-04-30 06:25 8.01032 141.34839 36876 ft 490 kts 91°
2026-04-30 06:26 8.01041 141.41707 36872 ft 489 kts 91°
2026-04-30 06:26 8.01051 141.48574 36874 ft 489 kts 91°
2026-04-30 06:27 8.01059 141.55448 36871 ft 489 kts 91°
2026-04-30 06:27 8.01067 141.62273 36871 ft 489 kts 91°
2026-04-30 06:28 8.01072 141.69141 36866 ft 489 kts 91°
2026-04-30 06:28 8.01077 141.76012 36874 ft 489 kts 91°
2026-04-30 06:29 8.01079 141.82878 36870 ft 489 kts 91°
2026-04-30 06:29 8.01082 141.89749 36870 ft 490 kts 91°
2026-04-30 06:30 8.01083 141.96633 36874 ft 490 kts 91°
2026-04-30 06:30 8.01083 142.03484 36872 ft 491 kts 90°
2026-04-30 06:31 8.01082 142.10381 36870 ft 490 kts 91°
2026-04-30 06:31 8.01080 142.17251 36869 ft 489 kts 91°
2026-04-30 06:32 8.01077 142.24125 36870 ft 489 kts 91°
2026-04-30 06:32 8.01070 142.30959 36870 ft 489 kts 90°
2026-04-30 06:33 8.01064 142.37826 36868 ft 488 kts 90°
2026-04-30 06:33 8.01059 142.44534 36870 ft 475 kts 90°
2026-04-30 06:34 8.01051 142.51212 36872 ft 478 kts 90°
2026-04-30 06:34 8.01040 142.57949 36870 ft 482 kts 90°
2026-04-30 06:35 8.01031 142.64707 36870 ft 481 kts 90°
2026-04-30 06:35 8.01021 142.71459 36870 ft 481 kts 90°
2026-04-30 06:36 8.01007 142.78216 36870 ft 481 kts 90°
2026-04-30 06:36 8.00993 142.84918 36864 ft 479 kts 89°
2026-04-30 06:37 8.00981 142.91637 36860 ft 478 kts 90°
2026-04-30 06:37 8.00966 142.98352 36857 ft 478 kts 90°
2026-04-30 06:38 8.00950 143.05056 36869 ft 475 kts 90°
2026-04-30 06:38 8.00932 143.11738 36871 ft 476 kts 90°
2026-04-30 06:39 8.00914 143.18375 36866 ft 476 kts 90°
2026-04-30 06:39 8.00894 143.25057 36873 ft 476 kts 90°
2026-04-30 06:40 8.00873 143.31761 36862 ft 478 kts 90°
2026-04-30 06:40 8.00851 143.38479 36872 ft 479 kts 90°
2026-04-30 06:41 8.00828 143.45198 36870 ft 476 kts 90°
2026-04-30 06:41 8.00804 143.51903 36870 ft 478 kts 90°
2026-04-30 06:42 8.00779 143.58615 36870 ft 478 kts 90°
2026-04-30 06:42 8.00754 143.65311 36871 ft 478 kts 90°
2026-04-30 06:43 8.00727 143.71972 36861 ft 477 kts 90°
2026-04-30 06:43 8.00698 143.78668 36864 ft 477 kts 90°
2026-04-30 06:44 8.00669 143.85386 36861 ft 477 kts 89°
2026-04-30 06:44 8.00638 143.92054 36868 ft 477 kts 90°
2026-04-30 06:45 8.00607 143.98758 36860 ft 477 kts 89°
2026-04-30 06:45 8.00575 144.05462 36865 ft 477 kts 90°
2026-04-30 06:46 8.00541 144.12175 36860 ft 478 kts 90°
2026-04-30 06:46 8.00506 144.18843 36867 ft 478 kts 90°
2026-04-30 06:47 8.00472 144.25564 36855 ft 479 kts 90°
2026-04-30 06:47 8.00431 144.32312 36855 ft 480 kts 90°
2026-04-30 06:48 8.00394 144.39013 36862 ft 481 kts 89°
2026-04-30 06:48 8.00356 144.45767 36863 ft 481 kts 89°
2026-04-30 06:49 8.00314 144.52539 36872 ft 481 kts 89°
2026-04-30 06:49 8.00273 144.59298 36871 ft 481 kts 89°
2026-04-30 06:50 8.00231 144.66004 36872 ft 481 kts 89°
2026-04-30 06:50 8.00188 144.72770 36873 ft 481 kts 89°
2026-04-30 06:51 8.00143 144.79508 36869 ft 478 kts 89°
2026-04-30 06:51 8.00099 144.86217 36868 ft 479 kts 89°
2026-04-30 06:52 8.00053 144.92932 36872 ft 479 kts 89°
2026-04-30 06:52 8.00007 144.99651 36869 ft 479 kts 89°
2026-04-30 06:53 7.99873 145.06310 36875 ft 476 kts 90°
2026-04-30 06:53 7.99669 145.13010 36867 ft 476 kts 90°
2026-04-30 06:54 7.99486 145.19697 36871 ft 477 kts 90°
2026-04-30 06:54 7.99311 145.26392 36867 ft 477 kts 90°
2026-04-30 06:55 7.99136 145.33066 36863 ft 475 kts 90°
2026-04-30 06:55 7.98962 145.39694 36867 ft 476 kts 90°
2026-04-30 06:56 7.98783 145.46370 36863 ft 476 kts 90°
2026-04-30 06:56 7.98604 145.53039 36874 ft 475 kts 90°
2026-04-30 06:57 7.98423 145.59730 36860 ft 476 kts 90°
2026-04-30 06:57 7.98244 145.66377 36868 ft 476 kts 90°
2026-04-30 06:58 7.98061 145.73067 36860 ft 477 kts 90°
2026-04-30 06:58 7.97876 145.79772 36866 ft 477 kts 90°
2026-04-30 06:59 7.97688 145.86460 36862 ft 477 kts 90°
2026-04-30 06:59 7.97503 145.93125 36873 ft 477 kts 90°
2026-04-30 07:00 7.97317 145.99839 36870 ft 477 kts 90°
2026-04-30 07:00 7.97129 146.06543 36871 ft 478 kts 90°
2026-04-30 07:01 7.96940 146.13238 36862 ft 478 kts 90°
2026-04-30 07:01 7.96750 146.19918 36867 ft 478 kts 90°
2026-04-30 07:02 7.96556 146.26621 36864 ft 478 kts 90°
2026-04-30 07:02 7.96361 146.33331 36863 ft 478 kts 90°
2026-04-30 07:03 7.96169 146.40052 36863 ft 478 kts 90°
2026-04-30 07:03 7.95973 146.46769 36867 ft 479 kts 90°
2026-04-30 07:04 7.95778 146.53439 36863 ft 479 kts 90°
2026-04-30 07:04 7.95581 146.60155 36868 ft 479 kts 90°
2026-04-30 07:05 7.95282 146.70241 36858 ft 479 kts 90°
2026-04-30 07:05 7.95081 146.76955 36863 ft 479 kts 90°
2026-04-30 07:06 7.94913 146.82543 36867 ft 479 kts 90°
2026-04-30 07:06 7.94675 146.90394 36867 ft 478 kts 90°
2026-04-30 07:07 7.94508 146.95958 36861 ft 477 kts 90°
2026-04-30 07:07 7.94305 147.02660 36862 ft 477 kts 90°
2026-04-30 07:08 7.94101 147.09309 36858 ft 477 kts 91°
2026-04-30 07:08 7.93895 147.15999 36859 ft 476 kts 90°
2026-04-30 07:09 7.93688 147.22692 36866 ft 477 kts 91°
2026-04-30 07:09 7.93480 147.29394 36867 ft 478 kts 91°
2026-04-30 07:10 7.93269 147.36119 36857 ft 478 kts 91°
2026-04-30 07:10 7.93060 147.42791 36859 ft 476 kts 91°
2026-04-30 07:11 7.92849 147.49440 36859 ft 476 kts 91°
2026-04-30 07:11 7.92637 147.56142 36859 ft 476 kts 90°
2026-04-30 07:12 7.92425 147.62825 36861 ft 476 kts 91°
2026-04-30 07:12 7.92211 147.69488 36850 ft 474 kts 91°
2026-04-30 07:13 7.91997 147.76148 36855 ft 475 kts 91°
2026-04-30 07:13 7.91781 147.82809 36854 ft 476 kts 91°
2026-04-30 07:14 7.91563 147.89480 36863 ft 475 kts 91°
2026-04-30 07:14 7.91345 147.96097 36859 ft 474 kts 91°
2026-04-30 07:15 7.91126 148.02765 36865 ft 475 kts 91°
2026-04-30 07:15 7.90909 148.09424 36860 ft 476 kts 91°
2026-04-30 07:16 7.90688 148.16083 36863 ft 476 kts 91°
2026-04-30 07:16 7.90466 148.22738 36861 ft 475 kts 91°
2026-04-30 07:17 7.90244 148.29363 36859 ft 474 kts 91°
2026-04-30 07:18 7.89907 148.39356 36859 ft 475 kts 91°
2026-04-30 07:18 7.89681 148.46023 36863 ft 474 kts 91°
2026-04-30 07:19 7.89458 148.52696 36857 ft 475 kts 91°
2026-04-30 07:19 7.89228 148.59370 36862 ft 476 kts 91°
2026-04-30 07:20 7.88999 148.65992 36856 ft 476 kts 92°
2026-04-30 07:20 7.88769 148.72662 36861 ft 476 kts 92°
2026-04-30 07:21 7.88540 148.79331 36858 ft 477 kts 92°
2026-04-30 07:21 7.88306 148.86030 36856 ft 476 kts 92°
2026-04-30 07:22 7.87954 148.96049 36855 ft 477 kts 92°
2026-04-30 07:22 7.87719 149.02736 36859 ft 476 kts 92°
2026-04-30 07:23 7.87487 149.09387 36855 ft 476 kts 92°
2026-04-30 07:23 7.87248 149.16073 36857 ft 477 kts 93°
2026-04-30 07:24 7.87010 149.22734 36862 ft 477 kts 92°
2026-04-30 07:24 7.86770 149.29428 36850 ft 478 kts 92°
2026-04-30 07:25 7.86529 149.36129 36864 ft 477 kts 92°
2026-04-30 07:25 7.86287 149.42831 36860 ft 478 kts 93°
2026-04-30 07:26 7.86045 149.49497 36871 ft 477 kts 93°
2026-04-30 07:26 7.85799 149.56204 36859 ft 477 kts 93°
2026-04-30 07:27 7.85555 149.62894 36862 ft 477 kts 93°
2026-04-30 07:27 7.85309 149.69566 36856 ft 475 kts 93°
2026-04-30 07:28 7.85063 149.76183 36858 ft 475 kts 93°
2026-04-30 07:28 7.84816 149.82848 36854 ft 475 kts 93°
2026-04-30 07:29 7.84567 149.89523 36858 ft 476 kts 93°
2026-04-30 07:29 7.84317 149.96199 36854 ft 475 kts 93°
2026-04-30 07:30 7.83941 150.06184 36859 ft 475 kts 93°
2026-04-30 07:31 7.83689 150.12842 36857 ft 475 kts 93°
2026-04-30 07:31 7.83437 150.19464 36851 ft 475 kts 93°
2026-04-30 07:32 7.83183 150.26135 36858 ft 475 kts 93°
2026-04-30 07:32 7.82927 150.32809 36854 ft 475 kts 93°
2026-04-30 07:33 7.82671 150.39478 36860 ft 475 kts 93°
2026-04-30 07:33 7.82415 150.46101 36855 ft 476 kts 93°
2026-04-30 07:34 7.82156 150.52763 36868 ft 475 kts 93°
2026-04-30 07:34 7.81898 150.59412 36859 ft 474 kts 93°
2026-04-30 07:35 7.81639 150.66067 36861 ft 474 kts 93°
2026-04-30 07:35 7.81378 150.72713 36856 ft 474 kts 93°
2026-04-30 07:36 7.80735 150.79328 36851 ft 473 kts 97°
2026-04-30 07:36 7.80036 150.85895 36852 ft 474 kts 97°
2026-04-30 07:37 7.79344 150.92500 36852 ft 474 kts 97°
2026-04-30 07:37 7.78646 150.99112 36860 ft 474 kts 97°
2026-04-30 07:38 7.77946 151.05723 36859 ft 474 kts 97°
2026-04-30 07:38 7.77246 151.12328 36865 ft 473 kts 97°
2026-04-30 07:39 7.76544 151.18933 36862 ft 473 kts 97°
2026-04-30 07:39 7.75846 151.25485 36858 ft 473 kts 97°
2026-04-30 07:40 7.75142 151.32081 36856 ft 473 kts 97°
2026-04-30 07:40 7.74437 151.38683 36858 ft 472 kts 97°
2026-04-30 07:41 7.73735 151.45246 36857 ft 472 kts 97°
2026-04-30 07:41 7.73028 151.51838 36852 ft 472 kts 97°
2026-04-30 07:42 7.72321 151.58431 36852 ft 472 kts 97°
2026-04-30 07:42 7.71617 151.64981 36848 ft 472 kts 97°
2026-04-30 07:43 7.70909 151.71561 36848 ft 472 kts 97°
2026-04-30 07:43 7.70199 151.78150 36839 ft 472 kts 97°
2026-04-30 07:44 7.69488 151.84732 36849 ft 471 kts 97°
2026-04-30 07:44 7.68777 151.91310 36851 ft 471 kts 97°
2026-04-30 07:45 7.68072 151.97835 36856 ft 471 kts 97°
2026-04-30 07:45 7.67358 152.04412 36847 ft 471 kts 97°
2026-04-30 07:46 7.66648 152.10975 36847 ft 471 kts 97°
2026-04-30 07:46 7.65939 152.17505 36856 ft 471 kts 97°
2026-04-30 07:47 7.65222 152.24072 36846 ft 471 kts 97°
2026-04-30 07:47 7.64504 152.30647 36855 ft 471 kts 97°
2026-04-30 07:48 7.63786 152.37222 36853 ft 471 kts 97°
2026-04-30 07:48 7.63067 152.43800 36859 ft 474 kts 97°
2026-04-30 07:49 7.62344 152.50401 36860 ft 478 kts 97°
2026-04-30 07:49 7.61612 152.57088 36863 ft 481 kts 97°
2026-04-30 07:50 7.60875 152.63794 36861 ft 482 kts 97°
2026-04-30 07:50 7.60137 152.70505 36858 ft 482 kts 97°
2026-04-30 07:51 7.59397 152.77230 36866 ft 482 kts 97°
2026-04-30 07:51 7.58660 152.83910 36874 ft 482 kts 97°
2026-04-30 07:52 7.57919 152.90622 36875 ft 481 kts 97°
2026-04-30 07:52 7.57299 152.96234 36868 ft 481 kts 97°
2026-04-30 07:53 7.56557 153.02941 36871 ft 481 kts 97°
2026-04-30 07:53 7.55814 153.09644 36871 ft 481 kts 97°
2026-04-30 07:54 7.55074 153.16305 36868 ft 481 kts 97°
2026-04-30 07:54 7.54327 153.23023 36864 ft 482 kts 97°
2026-04-30 07:55 7.53577 153.29753 36875 ft 482 kts 97°
2026-04-30 07:55 7.52828 153.36471 36867 ft 483 kts 97°
2026-04-30 07:56 7.52082 153.43159 36874 ft 483 kts 97°
2026-04-30 07:56 7.51330 153.49886 36880 ft 483 kts 97°
2026-04-30 07:57 7.50576 153.56617 36866 ft 483 kts 97°
2026-04-30 07:57 7.49823 153.63339 36882 ft 483 kts 97°
2026-04-30 07:58 7.49067 153.70071 36872 ft 483 kts 97°
2026-04-30 07:58 7.48313 153.76765 36886 ft 483 kts 97°
2026-04-30 07:59 7.47555 153.83500 36884 ft 483 kts 97°
2026-04-30 07:59 7.46798 153.90228 36882 ft 482 kts 97°
2026-04-30 08:00 7.45659 154.00319 36884 ft 482 kts 97°
2026-04-30 08:00 7.44902 154.07003 36867 ft 482 kts 97°
2026-04-30 08:01 7.44139 154.13730 36867 ft 483 kts 97°
2026-04-30 08:01 7.43378 154.20449 36875 ft 483 kts 97°
2026-04-30 08:02 7.42237 154.30555 36869 ft 483 kts 96°
2026-04-30 08:03 7.40759 154.43993 36869 ft 484 kts 96°
2026-04-30 08:04 7.39983 154.50735 36875 ft 484 kts 96°
2026-04-30 08:04 7.39211 154.57437 36877 ft 484 kts 96°
2026-04-30 08:05 7.38432 154.64191 36878 ft 485 kts 96°
2026-04-30 08:05 7.37655 154.70935 36886 ft 485 kts 96°
2026-04-30 08:06 7.36876 154.77689 36885 ft 485 kts 96°
2026-04-30 08:06 7.36096 154.84449 36880 ft 485 kts 97°
2026-04-30 08:07 7.35314 154.91213 36879 ft 485 kts 97°
2026-04-30 08:07 7.34538 154.97927 36873 ft 485 kts 97°
2026-04-30 08:08 7.33754 155.04688 36888 ft 485 kts 97°
2026-04-30 08:08 7.32957 155.11455 36885 ft 485 kts 97°
2026-04-30 08:09 7.32171 155.18212 36881 ft 485 kts 97°
2026-04-30 08:09 7.31396 155.24930 36882 ft 485 kts 97°
2026-04-30 08:10 7.30611 155.31703 36885 ft 485 kts 97°
2026-04-30 08:10 7.29828 155.38455 36882 ft 485 kts 97°
2026-04-30 08:11 7.29045 155.45176 36888 ft 485 kts 97°
2026-04-30 08:11 7.28258 155.51929 36879 ft 485 kts 97°
2026-04-30 08:12 7.27469 155.58684 36885 ft 485 kts 97°
2026-04-30 08:12 7.26686 155.65400 36877 ft 485 kts 97°
2026-04-30 08:13 7.25897 155.72156 36875 ft 485 kts 97°
2026-04-30 08:13 7.25107 155.78911 36716 ft 486 kts 97°
2026-04-30 08:13 7.24711 155.82295 36468 ft 486 kts 97°
2026-04-30 08:14 7.24314 155.85683 36227 ft 486 kts 97°
2026-04-30 08:14 7.23917 155.89075 35990 ft 487 kts 97°
2026-04-30 08:14 7.23525 155.92417 35756 ft 488 kts 97°
2026-04-30 08:14 7.23125 155.95819 35516 ft 489 kts 97°
2026-04-30 08:15 7.22726 155.99231 35284 ft 490 kts 97°
2026-04-30 08:15 7.22324 156.02649 35052 ft 491 kts 97°
2026-04-30 08:15 7.21925 156.06063 34823 ft 491 kts 97°
2026-04-30 08:15 7.21521 156.09495 34594 ft 493 kts 97°
2026-04-30 08:16 7.21120 156.12899 34375 ft 486 kts 97°
2026-04-30 08:16 7.20723 156.16262 34144 ft 481 kts 97°
2026-04-30 08:16 7.20333 156.19570 33921 ft 482 kts 97°
2026-04-30 08:16 7.19937 156.22947 33678 ft 484 kts 97°
2026-04-30 08:17 7.19536 156.26319 33430 ft 485 kts 97°
2026-04-30 08:17 7.19133 156.29691 33172 ft 484 kts 97°
2026-04-30 08:17 7.18735 156.33039 32920 ft 485 kts 97°
2026-04-30 08:17 7.18333 156.36427 32673 ft 486 kts 97°
2026-04-30 08:18 7.17931 156.39814 32426 ft 487 kts 97°
2026-04-30 08:18 7.17528 156.43207 32181 ft 488 kts 97°
2026-04-30 08:18 7.17122 156.46598 31943 ft 488 kts 98°
2026-04-30 08:18 7.16710 156.49993 31704 ft 489 kts 98°
2026-04-30 08:19 7.16303 156.53398 31472 ft 489 kts 97°
2026-04-30 08:19 7.15903 156.56786 30970 ft 488 kts 98°
2026-04-30 08:19 7.15497 156.60186 30131 ft 491 kts 98°
2026-04-30 08:19 7.15089 156.63584 29426 ft 487 kts 98°
2026-04-30 08:20 7.14689 156.66914 28748 ft 482 kts 98°
2026-04-30 08:20 7.14290 156.70253 28064 ft 477 kts 98°
2026-04-30 08:20 7.13895 156.73558 27388 ft 473 kts 98°
2026-04-30 08:20 7.13506 156.76831 26684 ft 469 kts 98°
2026-04-30 08:21 7.13118 156.80085 26036 ft 465 kts 98°
2026-04-30 08:21 7.12734 156.83313 25342 ft 463 kts 97°
2026-04-30 08:21 7.12354 156.86510 24657 ft 460 kts 97°
2026-04-30 08:21 7.11974 156.89702 23996 ft 457 kts 97°
2026-04-30 08:22 7.11605 156.92859 23311 ft 454 kts 97°
2026-04-30 08:22 7.11240 156.95997 22665 ft 448 kts 97°
2026-04-30 08:22 7.10879 156.99068 22014 ft 443 kts 97°
2026-04-30 08:22 7.10514 157.02135 21365 ft 438 kts 97°
2026-04-30 08:23 7.10152 157.05171 20662 ft 434 kts 97°
2026-04-30 08:23 7.09792 157.08173 20056 ft 429 kts 97°
2026-04-30 08:23 7.09434 157.11152 19382 ft 426 kts 97°
2026-04-30 08:23 7.09084 157.14062 18728 ft 422 kts 97°
2026-04-30 08:24 7.08733 157.16986 18082 ft 418 kts 97°
2026-04-30 08:24 7.08386 157.19871 17463 ft 411 kts 97°
2026-04-30 08:24 7.08046 157.22708 16837 ft 405 kts 97°
2026-04-30 08:24 7.07710 157.25504 16218 ft 399 kts 97°
2026-04-30 08:25 7.07378 157.28264 15558 ft 395 kts 97°
2026-04-30 08:25 7.07050 157.30983 15000 ft 388 kts 97°
2026-04-30 08:25 7.06725 157.33672 14371 ft 384 kts 97°
2026-04-30 08:25 7.06403 157.36336 13760 ft 380 kts 97°
2026-04-30 08:26 7.06091 157.38926 13107 ft 376 kts 97°
2026-04-30 08:26 7.05778 157.41507 12579 ft 367 kts 97°
2026-04-30 08:26 7.05471 157.44040 12006 ft 361 kts 97°
2026-04-30 08:26 7.05168 157.46537 11441 ft 355 kts 97°
2026-04-30 08:27 7.04870 157.48992 10881 ft 349 kts 97°
2026-04-30 08:27 7.04577 157.51409 10368 ft 344 kts 97°
2026-04-30 08:27 7.04296 157.53732 10203 ft 326 kts 97°
2026-04-30 08:27 7.04029 157.55935 10049 ft 308 kts 97°
2026-04-30 08:28 7.03777 157.58038 9669 ft 300 kts 97°
2026-04-30 08:28 7.03530 157.60093 9330 ft 290 kts 97°
2026-04-30 08:28 7.03287 157.62093 9201 ft 290 kts 97°
2026-04-30 08:28 7.03046 157.64102 9080 ft 291 kts 97°
2026-04-30 08:29 7.02799 157.66126 8812 ft 291 kts 97°
2026-04-30 08:29 7.02553 157.68140 8434 ft 287 kts 97°
2026-04-30 08:29 7.02316 157.70113 8074 ft 279 kts 97°
2026-04-30 08:29 7.02097 157.72026 7704 ft 271 kts 96°
2026-04-30 08:30 7.01909 157.73882 7353 ft 262 kts 96°
2026-04-30 08:30 7.01734 157.75682 7015 ft 254 kts 96°
2026-04-30 08:30 7.01558 157.77486 6677 ft 275 kts 96°
2026-04-30 08:30 7.01357 157.79498 6364 ft 296 kts 96°
2026-04-30 08:31 7.01152 157.81544 6315 ft 289 kts 96°
2026-04-30 08:31 7.00954 157.83497 6127 ft 279 kts 96°
2026-04-30 08:31 7.00759 157.85427 5621 ft 276 kts 96°
2026-04-30 08:31 7.00564 157.87338 5063 ft 273 kts 96°
2026-04-30 08:32 7.00373 157.89228 4514 ft 269 kts 96°
2026-04-30 08:32 7.00187 157.91098 4026 ft 263 kts 95°
2026-04-30 08:32 7.00004 157.92894 3681 ft 253 kts 96°
2026-04-30 08:32 6.99827 157.94624 3347 ft 244 kts 96°
2026-04-30 08:33 6.99657 157.96300 3154 ft 245 kts 96°
2026-04-30 08:33 6.99474 157.98113 2821 ft 272 kts 96°
2026-04-30 08:33 6.99281 158.00001 2734 ft 267 kts 96°
2026-04-30 08:33 6.99096 158.01828 2624 ft 255 kts 96°
2026-04-30 08:34 6.98924 158.03532 2477 ft 239 kts 96°
2026-04-30 08:34 6.98761 158.05146 2363 ft 224 kts 96°
2026-04-30 08:34 6.98601 158.06694 2333 ft 225 kts 96°
2026-04-30 08:34 6.98530 158.08268 2275 ft 225 kts 90°
2026-04-30 08:35 6.98533 158.09827 2098 ft 221 kts 90°
2026-04-30 08:35 6.98533 158.11359 1979 ft 220 kts 90°
2026-04-30 08:35 6.98512 158.12876 1858 ft 203 kts 90°
2026-04-30 08:35 6.98487 158.14270 1476 ft 194 kts 90°
2026-04-30 08:36 6.98504 158.15551 1230 ft 171 kts 89°
2026-04-30 08:36 6.98532 158.16344 874 ft 169 kts 89°
2026-04-30 08:36 6.98608 158.17821 518 ft 149 kts 87°
2026-04-30 08:36 6.98600 158.18839 267 ft 143 kts 89°
2026-04-30 08:37 6.98585 158.19517 115 ft 146 kts 91°
2026-04-30 08:37 6.98515 158.20814 28 ft 116 kts 93°
2026-04-30 08:37 6.98510 158.21218 23 ft 58 kts 89°
2026-04-30 08:37 6.98515 158.21481 25 ft 33 kts 89°
2026-04-30 08:38 6.98529 158.21723 27 ft 35 kts 88°
2026-04-30 08:38 6.98499 158.21862 26 ft 10 kts 149°
2026-04-30 08:38 6.98479 158.21854 26 ft 3 kts 212°
2026-04-30 08:38 6.98483 158.21834 26 ft 6 kts 281°
2026-04-30 08:39 6.98503 158.21747 28 ft 18 kts 278°
2026-04-30 08:39 6.98510 158.21583 29 ft 28 kts 271°
2026-04-30 08:39 6.98514 158.21363 27 ft 33 kts 271°
2026-04-30 08:39 6.98515 158.21134 28 ft 32 kts 270°
2026-04-30 08:40 6.98519 158.20917 24 ft 31 kts 271°
2026-04-30 08:40 6.98521 158.20703 25 ft 30 kts 271°
2026-04-30 08:40 6.98523 158.20497 25 ft 29 kts 269°
2026-04-30 08:40 6.98432 158.20355 25 ft 21 kts 188°
2026-04-30 08:41 6.98295 158.20356 25 ft 19 kts 190°
2026-04-30 08:41 6.98186 158.20331 27 ft 0 kts 179°
2026-04-30 08:43 6.98252 158.20331 28 ft 8 kts 179°
2026-04-30 08:44 6.98255 158.20322 28 ft 8 kts 218°